#timestamp,LO_Frequency,Hit,StdDev 
1540893615.4,286047001.1,N
1540893635.2,286047001.1,N
1540893655.0,286047000.8,N
1540893655.9,286047000.8,N
1540893675.8,286047000.6,N
1540893695.6,286047002.7,N
1540893715.5,286046999.9,N
1540893735.3,286047000.5,N
1540893755.1,286047000.8,N
1540893775.9,286046998.9,N
1540893795.7,286047000.9,N
1540893815.5,286047000.5,N
1540893835.4,286047000.7,N
1540893855.2,286046998.2,N
1540893875.0,286047000.2,N
1540893876.0,286047000.2,N
1540893895.8,286047002.4,N
1540893915.6,286047000.7,N
1540893935.5,286047000.7,N
1540893955.3,286047001.1,N
1540893975.1,286046998.7,N
1540893995.9,286047001.2,N
1540894015.7,286047000.5,N
1540894035.5,286047000.5,N
1540894055.4,286047000.5,N
1540894075.2,286046998.2,N
1540894095.1,286046998.2,N
1540894096.0,286046998.2,N
1540894115.8,286047000.3,N
1540894135.6,286047000.2,N
1540894155.5,286047000.3,N
1540894175.3,286047000.1,N
1540894195.1,286046998.1,N
1540894215.9,286047000.4,N
1540894235.7,286047002.8,N
1540894255.6,286047002.0,N
1540894275.4,286047002.7,N
1540894295.2,286046999.9,N
1540894315.3,286047002.6,N
1540894335.1,286047000.2,N
1540894355.9,286047000.3,N
1540894375.7,286047000.0,N
1540894395.5,286046999.8,N
1540894415.4,286047000.6,N
1540894435.2,286046999.8,N
1540894455.0,286047002.0,N
1540894455.9,286047002.0,N
1540894475.8,286047002.2,N
1540894495.6,286047000.1,N
1540894515.5,286047000.9,N
1540894535.3,286047000.3,N
1540894555.1,286047002.3,N
1540894575.9,286047000.2,N
1540894595.7,286047000.0,N
1540894615.5,286047001.1,N
1540894635.4,286046999.3,N
1540894655.2,286046999.4,N
1540894675.0,286046996.8,N
1540894676.0,286046996.8,N
1540894695.8,286046997.3,N
1540894715.6,286046997.1,N
1540894735.5,286046995.0,N
1540894755.3,286046998.0,N
1540894775.1,286046997.2,N
1540894795.9,286046995.1,N
1540894815.7,286046995.4,N
1540894835.6,286046996.9,N
1540894855.4,286046999.1,N
1540894875.2,286046999.6,N
1540894895.1,286046999.6,N
1540894896.0,286046999.6,N
1540894915.8,286047000.5,N
1540894935.6,286046999.8,N
1540894955.5,286047000.2,N
1540894975.3,286047002.4,N
1540894995.2,286047000.2,N
1540895015.9,286047000.2,N
1540895035.7,286046999.7,N
1540895055.6,286046998.8,N
1540895075.4,286046997.4,N
1540895095.2,286046994.9,N
1540895115.1,286046997.5,N
1540895116.0,286046997.5,N
1540895135.8,286046995.1,N
1540895155.7,286046997.6,N
1540895175.5,286046997.7,N
1540895195.3,286046997.7,N
1540895215.2,286046997.5,N
1540895235.0,286046995.2,N
1540895235.9,286046995.2,N
1540895255.7,286046996.3,N
1540895275.6,286046993.7,Y
1540895295.4,286046997.9,P
1540895315.3,286046995.4,P
1540895365.1,286046997.4,E
1540895375.1,286046999.6,N
1540895376.0,286046999.6,P
1540895395.8,286046998.5,P
1540895415.6,286047000.7,N
1540895435.5,286047001.2,N
1540895455.3,286047001.1,N
1540895475.1,286047001.2,N
1540895495.9,286047001.2,N
1540895515.7,286047000.6,N
1540895535.6,286047001.1,N
1540895555.4,286046999.0,N
1540895575.2,286046997.0,Y
1540895595.1,286046996.6,P
1540895596.0,286046996.6,N
1540895615.8,286046998.8,N
1540895635.7,286046998.8,N
1540895655.5,286046999.0,N
1540895675.3,286046998.6,N
1540895695.2,286046998.7,N
1540895715.0,286047001.0,N
1540895715.9,286047011.9,Y
1540895735.8,286047002.3,P
1540895755.6,286047001.6,N
1540895775.4,286047002.5,N
1540895795.3,286047000.2,N
1540895815.1,286047000.2,N
1540895816.0,286047000.2,N
1540895835.8,286047000.9,N
1540895855.7,286046998.8,N
1540895875.5,286046998.4,N
1540895895.4,286046998.2,N
1540895915.2,286047000.7,N
1540895935.0,286047000.5,N
1540895935.9,286047000.5,N
1540895955.8,286046999.9,N
1540895975.6,286047001.8,N
1540895995.4,286047003.9,Y
1540896015.3,286047002.1,P
1540896035.1,286047001.3,N
1540896055.9,286047001.8,N
1540896075.7,286047002.1,Y
1540896095.5,286046998.6,P
1540896115.4,286046997.0,N
1540896135.2,286046997.7,N
1540896155.0,286046999.2,N
1540896155.9,286046999.2,N
1540896175.8,286046996.5,N
1540896195.6,286046994.9,Y
1540896215.5,286046997.2,P
1540896235.3,286046996.8,P
1540896255.1,286046997.6,P
1540896275.9,286046995.0,Y
1540896295.7,286046996.7,P
1540896315.5,286046999.0,N
1540896335.4,286046997.6,N
1540896355.2,286046999.3,N
1540896375.1,286046999.3,N
1540896376.0,286046999.3,N
1540896395.8,286046997.4,N
1540896415.6,286046999.3,N
1540896435.5,286046997.7,N
1540896455.3,286046997.5,N
1540896475.2,286046996.7,Y
1540896495.9,286046999.9,P
1540896515.7,286047000.1,N
1540896535.6,286047002.4,N
1540896555.4,286047004.0,N
1540896575.3,286047004.3,N
1540896595.1,286047003.8,N
1540896596.0,286047003.8,N
1540896615.8,286047001.7,N
1540896635.7,286047001.3,N
1540896655.5,286047002.7,N
1540896675.3,286046999.8,N
1540896695.2,286047002.8,N
1540896715.0,286047000.2,N
1540896715.9,286047000.2,N
1540896735.8,286047001.0,N
1540896755.6,286046998.9,N
1540896775.4,286046998.2,N
1540896795.3,286047001.1,N
1540896815.1,286046999.0,N
1540896835.8,286046999.4,N
1540896855.7,286046999.5,N
1540896875.5,286046998.8,N
1540896895.4,286046998.7,N
1540896915.2,286046999.5,N
1540896935.0,286046997.6,N
1540896935.9,286046997.6,N
1540896955.8,286046995.7,N
1540896975.6,286046995.3,N
1540896995.5,286046997.8,N
1540897015.3,286046997.3,N
1540897035.1,286046996.9,N
1540897055.9,286046996.8,N
1540897075.7,286046996.8,N
1540897095.5,286046997.5,N
1540897115.4,286046996.8,N
1540897135.2,286046999.6,N
1540897155.1,286046999.4,N
1540897156.0,286046999.4,N
1540897175.8,286046999.1,N
1540897195.6,286046999.6,N
